Location: ???????
(56.2167°N, 38.0500°E)
Time: 14:09:04
(UTC+00:00)

Cosmos 1624 Rocket - Pass Details

Date: 19 May 2025
Orbit: 753 x 779 km, 74.0° (Epoch: 20 June)

Event Time Altitude Azimuth Distance (km) Brightness Sun altitude
Rises 21:02:50 0° 331° (NNW) 3,223 8.5 -13.7°
Reaches altitude 10° 21:05:13 10° 333° (NNW) 2,297 7.6 -13.7°
Maximum altitude 21:10:26 77° 60° (ENE) 787 4.1 -13.8°
Enters shadow 21:14:44 15° 145° (SE) 1,947 5.6 -13.8°
